Change the Weather History Date:

Thursday, December 27, 2012

  Actual Average Record
Temperature  
Mean Temperature 24 °F -  
Max Temperature 30 °F 47 °F 74 °F (1971)
Min Temperature 17 °F 19 °F -3 °F (1987)
Degree Days  
Heating Degree Days 42    
Moisture  
Dew Point 18 °F    
Average Humidity 80    
Maximum Humidity 93    
Minimum Humidity 69    
Precipitation  
Precipitation 0.00 in - - ()
Sea Level Pressure  
Sea Level Pressure 29.79 in    
Wind  
Wind Speed 13 mph (NW)    
Max Wind Speed 21 mph    
Max Gust Speed 26 mph    
Visibility 10 miles    
Events      
Averages and records for this station are not official NWS values.
T = Trace of Precipitation, MM = Missing Value Source: NWS Daily Summary

Daily Weather History Graph

Daily Weather History Graph

Search for Another Location

Airport or City:

Trip Planner

Search our weather history database for the weather conditions in past years. The results will help you decide how hot, cold, wet, or windy it might be!

Date:

Astronomy

Dec. 27, 2012 Rise Set
Actual Time 7:53 AM CST 5:35 PM CST
Civil Twilight 7:24 AM CST 6:04 PM CST
Nautical Twilight 6:52 AM CST 6:36 PM CST
Astronomical Twilight 6:21 AM CST 7:07 PM CST
Moon 5:19 PM CST (12/27) 7:06 AM CST (12/27)
Length of Visible Light 10h 39m
Length of Day
9h 41m
Full, 100% of the Moon is Illuminated
Dec 27
Full
Dec 28
Full
Jan 4
Last Quarter
Jan 11
New
Jan 18
First Quarter

Hourly Weather History & Observations

Time (CST) Temp. Windchill Dew Point Humidity Pressure Visibility Wind Dir Wind Speed Gust Speed Precip Events Conditions
12:15 AM 21.2 °F 10.9 °F 15.8 °F 80% 29.85 in 10.0 mi SSE 9.2 mph - N/A   Clear
12:35 AM 19.4 °F 8.6 °F 14.0 °F 80% 29.85 in 10.0 mi SSE 9.2 mph - N/A   Clear
12:55 AM 19.4 °F 5.5 °F 14.0 °F 80% 29.85 in 10.0 mi SSE 15.0 mph - N/A   Clear
1:15 AM 21.2 °F 10.9 °F 14.0 °F 74% 29.83 in 10.0 mi SSE 9.2 mph - N/A   Clear
1:35 AM 19.4 °F 5.0 °F 14.0 °F 80% 29.81 in 10.0 mi SSE 16.1 mph - N/A   Clear
1:55 AM 19.4 °F 6.6 °F 14.0 °F 80% 29.81 in 10.0 mi SSE 12.7 mph - N/A   Clear
2:15 AM 19.4 °F 5.0 °F 14.0 °F 80% 29.81 in 10.0 mi SSE 16.1 mph - N/A   Clear
2:35 AM 19.4 °F 5.0 °F 14.0 °F 80% 29.80 in 10.0 mi SSE 16.1 mph - N/A   Clear
2:55 AM 19.4 °F 3.6 °F 14.0 °F 80% 29.79 in 10.0 mi SSE 19.6 mph 25.3 mph N/A   Clear
3:15 AM 19.4 °F 3.2 °F 14.0 °F 80% 29.78 in 10.0 mi SSE 20.7 mph - N/A   Clear
3:55 AM 17.6 °F 2.2 °F 14.0 °F 86% 29.76 in 10.0 mi SSE 17.3 mph - N/A   Clear
4:15 AM 17.6 °F 5.0 °F 14.0 °F 86% 29.75 in 10.0 mi SSE 11.5 mph - N/A   Clear
4:35 AM 17.6 °F 4.3 °F 14.0 °F 86% 29.73 in 10.0 mi South 12.7 mph - N/A   Clear
4:55 AM 19.4 °F 5.0 °F 14.0 °F 80% 29.72 in 10.0 mi South 16.1 mph - N/A   Clear
5:15 AM 19.4 °F 4.1 °F 15.8 °F 86% 29.71 in 10.0 mi South 18.4 mph - N/A   Clear
5:35 AM 21.2 °F 5.6 °F 15.8 °F 80% 29.70 in 10.0 mi South 20.7 mph 26.5 mph N/A   Clear
5:55 AM 19.4 °F 3.6 °F 15.8 °F 86% 29.70 in 10.0 mi South 19.6 mph - N/A   Clear
6:15 AM 21.2 °F 6.4 °F 15.8 °F 80% 29.70 in 10.0 mi South 18.4 mph 25.3 mph N/A   Clear
6:35 AM 19.4 °F 4.5 °F 15.8 °F 86% 29.70 in 10.0 mi South 17.3 mph - N/A   Clear
6:55 AM 19.4 °F 4.1 °F 15.8 °F 86% 29.69 in 10.0 mi South 18.4 mph 23.0 mph N/A   Clear
7:15 AM 19.4 °F 5.5 °F 15.8 °F 86% 29.71 in 10.0 mi South 15.0 mph - N/A   Clear
7:35 AM 21.2 °F 6.8 °F 15.8 °F 80% 29.71 in 10.0 mi South 17.3 mph - N/A   Clear
7:55 AM 19.4 °F 6.6 °F 14.0 °F 80% 29.72 in 10.0 mi South 12.7 mph - N/A   Clear
8:15 AM 19.4 °F 11.5 °F 14.0 °F 80% 29.73 in 10.0 mi SSW 5.8 mph - N/A   Clear
8:35 AM 19.4 °F 7.9 °F 14.0 °F 80% 29.72 in 10.0 mi SSW 10.4 mph - N/A   Clear
8:55 AM 19.4 °F 11.5 °F 14.0 °F 80% 29.73 in 10.0 mi SSW 5.8 mph - N/A   Clear
9:15 AM 21.2 °F 13.6 °F 15.8 °F 80% 29.74 in 10.0 mi SW 5.8 mph - N/A   Clear
9:35 AM 23.0 °F 13.1 °F 17.6 °F 80% 29.75 in 10.0 mi SW 9.2 mph - N/A   Clear
9:55 AM 26.6 °F 16.8 °F 17.6 °F 69% 29.76 in 10.0 mi SW 10.4 mph - N/A   Clear
10:15 AM 26.6 °F 16.8 °F 17.6 °F 69% 29.76 in 10.0 mi WSW 10.4 mph - N/A   Clear
10:35 AM 28.4 °F 17.5 °F 19.4 °F 69% 29.77 in 10.0 mi WNW 13.8 mph 18.4 mph N/A   Clear
10:55 AM 26.6 °F 15.7 °F 17.6 °F 69% 29.78 in 10.0 mi NW 12.7 mph - N/A   Clear
11:15 AM 24.8 °F 14.0 °F 17.6 °F 74% 29.78 in 10.0 mi NW 11.5 mph - N/A   Clear
11:35 AM 26.6 °F 15.7 °F 17.6 °F 69% 29.79 in 10.0 mi NW 12.7 mph - N/A   Clear
11:55 AM 26.6 °F 15.7 °F 19.4 °F 74% 29.78 in 10.0 mi NW 12.7 mph - N/A   Clear
12:15 PM 28.4 °F 17.5 °F 19.4 °F 69% 29.78 in 10.0 mi NW 13.8 mph - N/A   Clear
12:35 PM 26.6 °F 15.2 °F 19.4 °F 74% 29.76 in 10.0 mi NW 13.8 mph 18.4 mph N/A   Clear
12:55 PM 28.4 °F 17.0 °F 21.2 °F 74% 29.76 in 10.0 mi NW 15.0 mph - N/A   Clear
1:15 PM 28.4 °F 17.0 °F 21.2 °F 74% 29.75 in 10.0 mi NNW 15.0 mph - N/A   Clear
1:35 PM 30.2 °F 19.3 °F 21.2 °F 69% 29.74 in 10.0 mi NW 15.0 mph 19.6 mph N/A   Clear
1:55 PM 30.2 °F 19.3 °F 21.2 °F 69% 29.74 in 10.0 mi NNW 15.0 mph 20.7 mph N/A   Clear
2:15 PM 30.2 °F 19.3 °F 21.2 °F 69% 29.75 in 10.0 mi NNW 15.0 mph - N/A   Clear
2:35 PM 30.2 °F 19.3 °F 21.2 °F 69% 29.75 in 10.0 mi NNW 15.0 mph - N/A   Clear
2:55 PM 28.4 °F 16.2 °F 21.2 °F 74% 29.75 in 10.0 mi NNW 17.3 mph - N/A   Clear
3:15 PM 28.4 °F 17.5 °F 21.2 °F 74% 29.76 in 10.0 mi North 13.8 mph - N/A   Clear
3:35 PM 28.4 °F 17.0 °F 21.2 °F 74% 29.76 in 10.0 mi North 15.0 mph - N/A   Scattered Clouds
3:55 PM 28.4 °F 16.2 °F 21.2 °F 74% 29.78 in 10.0 mi North 17.3 mph - N/A   Scattered Clouds
4:15 PM 26.6 °F 13.8 °F 19.4 °F 74% 29.78 in 10.0 mi North 17.3 mph - N/A   Scattered Clouds
4:55 PM 24.8 °F 11.5 °F 19.4 °F 80% 29.78 in 10.0 mi North 17.3 mph - N/A   Overcast
5:15 PM 24.8 °F 11.5 °F 19.4 °F 80% 29.79 in 10.0 mi North 17.3 mph - N/A   Overcast
5:35 PM 23.0 °F 9.6 °F 19.4 °F 86% 29.80 in 10.0 mi North 16.1 mph - N/A   Overcast
5:55 PM 23.0 °F 11.1 °F 19.4 °F 86% 29.82 in 10.0 mi North 12.7 mph - N/A   Overcast
6:15 PM 23.0 °F 11.1 °F 19.4 °F 86% 29.83 in 10.0 mi North 12.7 mph - N/A   Overcast
6:35 PM 23.0 °F 11.1 °F 19.4 °F 86% 29.84 in 10.0 mi North 12.7 mph - N/A   Overcast
6:55 PM 23.0 °F 10.6 °F 19.4 °F 86% 29.84 in 10.0 mi North 13.8 mph - N/A   Overcast
7:15 PM 23.0 °F 11.1 °F 19.4 °F 86% 29.85 in 10.0 mi North 12.7 mph 18.4 mph N/A   Overcast
7:35 PM 23.0 °F 10.6 °F 19.4 °F 86% 29.85 in 10.0 mi North 13.8 mph 19.6 mph N/A   Overcast
7:55 PM 23.0 °F 11.1 °F 19.4 °F 86% 29.85 in 10.0 mi North 12.7 mph 20.7 mph N/A   Overcast
8:15 PM 23.0 °F 11.7 °F 19.4 °F 86% 29.86 in 10.0 mi North 11.5 mph - N/A   Overcast
8:35 PM 23.0 °F 11.7 °F 19.4 °F 86% 29.87 in 10.0 mi North 11.5 mph - N/A   Overcast
8:55 PM 23.0 °F 12.4 °F 19.4 °F 86% 29.87 in 10.0 mi NNE 10.4 mph - N/A   Overcast
9:15 PM 23.0 °F 11.7 °F 19.4 °F 86% 29.89 in 10.0 mi North 11.5 mph - N/A   Overcast
9:35 PM 23.0 °F 12.4 °F 19.4 °F 86% 29.91 in 10.0 mi North 10.4 mph - N/A   Overcast
9:55 PM 21.2 °F 8.9 °F 19.4 °F 93% 29.90 in 10.0 mi North 12.7 mph - N/A   Overcast
10:15 PM 21.2 °F 8.9 °F 17.6 °F 86% 29.90 in 10.0 mi North 12.7 mph - N/A   Overcast
10:35 PM 21.2 °F 10.9 °F 19.4 °F 93% 29.91 in 10.0 mi North 9.2 mph - N/A   Overcast
10:55 PM 21.2 °F 8.9 °F 19.4 °F 93% 29.93 in 10.0 mi North 12.7 mph - N/A   Overcast
11:35 PM 21.2 °F 9.5 °F 19.4 °F 93% 29.95 in 10.0 mi North 11.5 mph - N/A   Overcast
11:55 PM 21.2 °F 9.5 °F 19.4 °F 93% 29.94 in 10.0 mi North 11.5 mph - N/A   Overcast